Location: Carr Mill
(33.2054°N, 85.9439°W)
Time: 00:40:12
(UTC+00:00)

STARLINK-2732 - Pass Details

Date: 27 October 2021
Orbit: 545 x 549 km, 53.1° (Epoch: 28 November)

Event Time Altitude Azimuth Distance (km) Brightness Sun altitude
Exits shadow 10:59:37 17° 251° (WSW) 1,416 5.2 -12.8°
Maximum altitude 11:02:29 44° 318° (NW) 756 4.0 -12.2°
Drops below altitude 10° 11:06:27 10° 32° (NNE) 1,817 6.6 -11.4°
Sets 11:08:46 0° 39° (NE) 2,714 7.6 -10.9°
